Probability
0 0 0 0 0 0 0 0 0 0 0 0 0 0 0 0 1 3 5 6 6 7 7 8 8 10 11 10 11 13 16 14 12 10 9 8 7 5 4 4 4 2 1 0
0 0 0 0 0 0 0 0 0 0 0 0 0 0 0 0 0 2 5 6 6 5 5 6 6 7 8 8 9 11 13 13 11 10 9 9 7 6 4 4 3 1 0 0
0 0 0 0 0 0 0 0 0 0 0 0 0 0 0 0 0 1 4 5 4 4 3 3 4 4 4 6 7 8 8 10 10 10 10 9 7 6 5 4 3 1 0 0
0 0 0 0 0 0 0 0 0 0 0 0 0 0 0 0 0 0 2 3 3 3 3 3 3 3 4 5 6 5 5 6 9 9 9 9 7 6 6 5 4 2 1 0
0 0 0 0 0 0 0 0 0 0 0 0 0 0 0 0 0 0 0 1 2 3 3 2 3 3 4 5 5 4 3 4 6 7 8 8 6 4 5 5 4 3 2 1
0 0 0 0 0 0 0 0 0 0 0 0 0 0 0 0 0 0 0 0 1 2 2 1 2 3 4 6 6 4 3 3 3 4 6 6 5 4 4 5 5 4 3 1
0 0 0 0 0 0 0 0 0 0 0 0 0 0 0 0 0 0 0 0 0 1 1 1 3 3 4 6 6 5 4 3 1 1 3 3 4 5 5 5 5 5 4 2
0 0 0 0 0 0 0 0 0 0 0 0 0 0 0 0 0 0 0 0 0 0 1 2 3 4 5 6 5 5 4 3 2 1 1 1 2 4 5 4 4 4 3 2
0 0 0 0 0 0 0 0 0 0 0 0 0 0 0 0 0 0 0 0 0 0 1 2 3 3 4 5 4 3 3 4 3 2 1 1 1 3 4 3 3 3 3 3
0 0 0 0 0 0 0 0 0 0 0 0 0 0 0 0 0 0 0 0 0 0 0 1 1 2 3 3 4 2 2 2 3 3 3 2 2 3 3 3 3 3 3 3
0 0 0 0 0 0 0 0 0 0 0 0 0 0 0 0 0 0 0 0 0 0 0 0 0 1 1 1 2 2 1 1 1 2 2 2 3 3 3 3 3 2 2 1
0 0 0 0 0 0 0 0 0 0 0 0 0 0 0 0 0 0 0 0 0 0 0 0 0 0 0 0 1 1 0 0 0 1 2 2 3 3 3 2 1 1 1 0
0 0 0 0 0 0 0 0 0 0 0 0 0 0 0 0 0 0 0 0 0 0 0 0 0 0 0 0 0 0 0 1 1 1 3 4 3 2 1 1 0 0 0 0
0 0 0 0 0 0 0 0 0 0 0 0 0 0 0 0 0 0 0 0 0 0 0 0 0 0 0 0 0 1 1 2 3 3 4 4 3 1 0 0 0 0 0 0
0 0 0 0 0 0 0 0 0 0 0 0 0 0 0 0 0 0 0 0 0 0 0 0 0 0 0 0 0 1 2 3 3 4 4 2 1 0 0 0 0 0 0 0
0 0 0 0 0 0 0 0 0 0 0 0 0 0 0 0 0 0 0 0 0 0 0 0 0 0 0 0 0 1 2 2 2 3 2 2 1 0 0 0 0 0 0 0
0 0 0 0 0 0 0 0 0 0 0 0 0 0 0 0 0 0 0 0 0 0 0 0 0 0 0 0 0 0 0 0 1 1 1 1 1 0 0 0 0 0 0 0
0 0 0 0 0 0 0 0 0 0 0 0 0 0 0 0 0 0 0 0 0 0 0 0 0 0 0 0 0 0 0 0 0 1 1 1 0 0 0 0 0 0 0 0
0 0 0 0 0 0 0 0 0 0 0 0 0 0 0 0 0 0 0 0 0 0 0 0 0 0 0 0 0 0 0 0 0 1 1 0 0 0 0 0 0 0 0 0
0 0 0 0 0 0 0 0 0 0 0 0 0 0 0 0 0 0 0 0 0 0 0 0 0 0 0 0 0 0 0 0 0 0 0 0 0 0 0 0 0 0 0 0
0 0 0 0 0 0 0 0 0 0 0 0 0 0 0 0 0 0 0 0 0 0 0 0 0 0 0 0 0 0 0 0 0 0 0 0 0 0 0 0 0 0 0 0
0 0 0 0 0 0 0 0 0 0 0 0 0 0 0 0 0 0 0 0 0 0 0 0 0 0 0 0 0 0 0 0 0 0 0 0 0 0 0 0 0 0 0 0
0 0 0 0 0 0 0 0 0 0 0 0 0 0 0 0 0 0 0 0 0 0 0 0 0 0 0 0 0 0 0 0 0 0 0 0 0 0 0 0 0 0 0 0
0 0 0 0 0 0 0 0 0 0 0 0 0 0 0 0 0 0 0 0 0 0 0 0 0 0 0 0 0 0 0 0 0 0 0 0 0 0 0 0 0 0 0 0
0 0 0 0 0 0 0 0 0 0 0 0 0 0 0 0 0 0 0 0 0 0 0 0 0 0 0 0 0 0 0 0 0 0 0 0 0 0 0 0 0 0 0 0
0 0 0 0 0 0 0 0 0 0 0 0 0 0 0 0 0 0 0 0 0 0 0 0 0 0 0 0 0 0 0 0 0 0 0 0 0 0 0 0 0 0 0 0
Wind_Speed
2 4 1 3 3 3 2 2 2 3 2 1 2 5 7 4 2 2 1 2 1 2 2 1 1 0 0 1 1 2 2 2 2 2 2 2 2 2 2 2 4 4 5 5
3 1 3 2 2 2 2 2 2 3 2 1 2 5 5 3 3 2 2 2 2 2 2 2 2 2 1 1 1 1 2 2 2 2 2 2 2 2 3 2 2 4 5 5
3 2 1 2 2 2 1 3 2 2 4 2 1 5 4 2 1 1 1 1 1 1 1 3 3 3 1 1 2 2 2 2 2 2 1 0 0 0 1 1 2 3 5 5
1 2 1 1 1 2 3 3 2 1 1 2 1 3 6 2 1 1 1 1 2 2 2 2 3 4 3 3 2 2 2 2 2 2 2 2 2 2 3 3 3 3 5 5
0 0 1 2 2 2 3 2 1 1 1 1 1 2 7 0 2 3 2 1 2 2 2 3 4 4 3 3 2 2 2 2 2 2 3 3 3 3 2 2 3 4 3 4
0 1 0 1 1 1 1 2 3 3 2 1 3 4 6 3 4 2 2 2 3 3 3 4 4 4 3 3 2 1 2 3 3 2 3 3 4 3 3 3 4 4 3 3
4 3 2 1 1 2 3 4 3 3 2 4 2 3 7 3 2 3 2 2 3 3 3 4 5 5 4 4 3 2 2 3 3 3 3 4 5 5 5 5 5 5 4 3
1 3 2 1 1 2 1 4 5 3 3 3 2 5 6 2 1 0 0 1 3 4 4 4 5 4 5 4 4 3 3 4 3 3 4 4 4 4 4 5 5 5 5 5
2 2 2 1 0 2 3 2 3 4 0 2 5 5 5 1 2 2 2 2 3 4 5 5 5 5 5 5 5 4 4 4 5 5 5 4 4 4 4 5 5 4 4 4
2 1 3 3 2 2 2 4 3 3 2 3 5 5 5 4 3 3 3 4 5 5 5 5 5 5 5 5 5 4 4 5 5 5 5 4 4 4 4 4 5 4 4 4
1 2 2 2 0 2 2 2 3 2 3 3 4 7 5 5 4 2 3 4 4 5 5 5 6 6 5 4 4 4 5 5 5 5 5 5 4 4 4 4 5 4 4 4
1 3 1 3 3 1 2 3 4 3 3 3 3 9 3 2 2 1 3 4 5 5 5 5 6 5 5 4 4 5 5 5 5 5 5 5 4 4 4 4 4 3 4 4
2 3 2 4 2 2 0 1 3 3 2 3 4 9 2 2 4 3 4 4 5 5 6 5 6 6 5 5 5 5 5 5 5 4 4 4 4 3 3 4 3 3 3 3
3 2 4 6 4 2 3 3 3 4 4 5 8 9 8 6 6 6 5 5 5 5 5 5 6 6 6 6 5 6 6 5 4 4 3 4 4 3 3 3 2 3 3 4
3 2 2 4 4 3 5 7 6 7 7 8 8 8 11 7 6 5 4 5 6 6 6 6 6 7 7 7 6 6 6 6 5 4 3 4 3 3 2 2 2 2 2 3
2 2 0 3 4 4 7 9 8 8 7 8 8 11 7 5 3 4 4 5 5 6 6 6 7 7 7 8 7 7 6 6 5 4 3 3 3 2 1 1 1 1 1 2
2 3 1 3 3 4 8 8 8 5 5 6 9 9 4 4 5 5 5 4 5 6 6 7 7 7 7 7 7 7 7 6 5 4 3 3 2 1 1 1 1 1 1 2
5 3 2 1 2 5 7 1 4 5 5 6 6 5 4 6 6 4 4 4 5 6 6 7 6 7 6 6 7 6 6 5 4 4 3 2 1 1 0 1 1 1 1 2
4 5 2 1 2 8 7 3 4 4 6 5 6 6 5 4 4 4 3 3 5 6 6 6 6 6 6 6 6 6 6 4 4 4 4 2 1 1 1 1 1 1 1 1
3 3 3 3 3 7 6 2 1 2 5 4 4 5 3 1 3 5 4 4 5 5 5 5 5 5 5 6 5 5 5 4 4 4 4 2 1 1 1 1 1 1 1 2
2 2 3 4 5 10 5 1 2 3 6 2 3 4 3 4 6 6 5 5 4 5 5 5 4 4 5 6 5 4 5 5 5 4 3 3 2 2 2 2 2 2 2 3
8 6 6 5 5 10 3 5 6 7 3 2 3 3 4 5 5 5 5 5 5 5 5 4 4 5 5 5 4 4 5 6 5 3 3 3 3 2 2 3 2 2 3 4
8 9 7 10 10 5 5 6 5 3 3 3 3 4 3 4 5 5 5 5 4 4 4 4 4 5 5 4 4 4 5 5 4 3 3 3 3 3 2 2 2 2 3 3
5 3 4 6 8 6 6 5 4 4 5 4 4 4 3 5 5 5 5 5 5 4 4 4 3 4 5 5 4 4 4 4 3 3 3 3 2 2 3 2 2 2 2 2
6 5 4 7 7 5 6 8 7 5 4 4 4 4 5 5 5 5 5 5 5 4 4 3 3 4 5 4 4 4 4 4 3 3 3 3 2 2 2 2 2 1 1 1
7 8 8 9 7 6 7 5 5 5 5 5 5 5 4 5 5 5 5 5 4 4 3 3 3 4 4 4 4 4 3 2 2 2 2 2 2 2 2 2 3 5 3 4
Wind_Direction
59 78 170 215 195 177 163 166 234 267 296 6 246 263 280 290 263 228 248 258 255 252 280 320 353 360 34 336 250 191 193 205 186 177 186 195 195 192 192 193 192 184 178 175
67 256 246 207 158 140 158 171 261 297 337 352 293 284 276 270 247 210 197 229 262 308 343 352 0 0 358 285 305 251 214 211 203 194 203 212 209 201 200 199 198 190 178 176
139 230 232 134 134 149 216 191 212 261 334 352 350 308 283 298 342 332 285 255 259 274 310 322 331 321 317 312 302 297 271 239 224 195 153 93 217 290 193 203 209 208 188 182
93 278 209 129 182 170 225 221 213 204 28 297 152 275 278 259 295 307 295 325 315 321 335 335 330 317 297 281 281 296 303 287 253 194 173 183 207 224 222 206 210 217 196 185
262 263 151 190 244 188 217 230 210 188 166 307 283 209 276 212 242 255 265 285 315 324 328 319 312 296 293 286 282 286 298 305 287 230 202 203 226 235 232 208 203 209 205 193
303 331 141 220 269 214 182 69 49 49 76 271 231 190 267 237 229 245 275 313 319 322 318 311 307 308 306 304 294 302 298 290 290 263 229 219 223 230 224 223 212 210 210 205
1 355 341 330 54 26 72 93 48 9 0 250 239 215 252 247 234 205 223 282 306 306 300 309 321 318 311 306 312 302 280 279 275 266 252 237 225 217 218 221 213 213 213 211
75 311 319 357 155 161 139 131 148 191 227 280 289 238 255 259 289 317 220 308 320 320 317 315 316 302 298 299 302 311 288 275 270 262 259 251 231 222 225 228 220 214 219 217
144 262 321 331 347 138 131 146 157 133 180 272 269 279 289 253 343 345 345 341 324 319 316 317 321 316 305 300 299 293 287 286 274 263 259 257 239 231 231 239 226 217 219 213
146 180 301 316 25 17 129 137 101 118 159 265 284 265 243 240 264 304 325 326 318 320 321 325 326 320 307 297 296 295 283 274 279 271 260 263 245 239 234 237 228 218 213 200
93 127 316 359 221 203 108 110 119 136 167 175 261 268 231 211 217 248 290 306 311 313 315 318 320 316 312 310 305 304 300 293 287 283 271 260 248 240 239 243 234 217 206 196
81 113 272 268 271 229 165 172 156 161 225 194 214 270 274 217 239 243 287 303 312 316 318 320 320 324 328 322 314 311 304 296 289 286 284 270 254 238 236 250 238 212 197 194
111 110 43 345 331 359 56 191 164 148 147 187 208 263 300 350 331 318 303 308 317 322 325 328 333 335 327 320 321 314 309 301 291 287 286 285 270 246 244 253 234 205 186 180
110 128 179 205 225 202 241 240 201 166 189 223 230 257 286 293 301 312 315 314 314 313 318 326 330 327 325 323 318 313 310 305 305 301 295 282 264 252 252 240 222 206 181 175
100 165 235 266 277 261 248 243 224 213 210 218 244 252 269 268 272 282 291 304 309 314 324 325 322 320 322 325 322 316 314 309 310 306 297 287 267 256 249 226 214 206 186 179
93 146 314 296 291 274 274 258 236 235 231 235 258 270 267 275 277 280 287 296 300 307 311 313 315 318 319 319 319 320 317 312 314 307 294 291 266 237 209 217 203 178 172 162
126 129 123 269 312 332 274 242 214 212 213 203 230 250 290 295 283 273 274 280 283 292 300 303 305 305 306 308 313 316 311 313 318 312 298 293 282 240 204 222 164 153 146 143
148 138 155 269 10 246 245 239 194 203 239 225 243 262 261 266 277 268 253 263 282 293 299 298 300 304 307 309 312 313 315 319 326 327 320 320 322 335 7 112 130 139 128 141
159 149 145 155 254 278 283 243 186 195 262 232 233 262 279 295 312 287 259 269 274 280 288 290 292 297 304 309 312 318 323 329 337 333 330 332 342 1 53 88 105 96 106 106
91 116 141 165 210 247 257 258 195 118 276 241 216 243 266 339 300 281 303 300 294 297 298 301 306 311 312 313 320 323 324 334 334 327 321 327 353 42 55 63 58 55 86 93
137 141 181 199 232 262 256 228 123 178 252 261 217 226 215 222 239 276 300 296 292 297 302 309 314 313 311 318 327 330 334 329 324 326 337 356 27 52 57 53 57 75 82 85
176 176 191 176 212 251 198 143 187 224 260 255 242 232 232 251 272 283 288 291 298 304 307 310 311 312 316 326 334 336 331 328 335 349 8 17 29 38 47 65 62 69 85 90
199 193 189 196 217 242 188 200 221 208 234 244 243 248 241 256 267 277 285 288 289 291 297 305 306 312 320 326 335 329 325 335 349 7 19 27 33 38 45 71 80 72 80 92
236 191 195 248 258 250 241 244 249 233 235 246 243 247 238 248 261 273 281 287 291 289 291 299 308 312 316 322 328 324 329 341 6 13 12 28 43 39 40 45 65 84 87 94
212 175 206 252 268 286 254 232 235 234 237 253 260 254 242 243 256 258 268 276 280 284 287 293 293 294 301 314 319 327 339 351 8 17 17 26 37 47 45 40 41 56 62 98
194 187 195 232 227 216 249 237 221 223 235 241 252 265 257 239 249 257 262 268 273 280 287 295 295 297 302 311 315 327 339 350 8 13 14 27 38 41 53 58 46 38 49 58